[Iaude] MPEC J119: 2022 AY54 [a=1.20,e=0.30,i=30.0,H=30.2]
    mpec at cfa.harvard.edu 
    mpec at cfa.harvard.edu
       
    Tue May  7 13:05:04 EDT 2024
    
    
  
M.P.E.C. 2024-J119                                  Issued 2024 May 7, 17:03 UT
     The Minor Planet Electronic Circulars contain information on unusual
         minor planets, routine data on comets and natural satellites,
         and occasional editorial announcements.  They are published
    on behalf of Division F of the International Astronomical Union by the
          Minor Planet Center, Smithsonian Astrophysical Observatory,
                          Cambridge, MA 02138, U.S.A.
			  
             Prepared using the Tamkin Foundation Computer Network
                              MPC at CFA.HARVARD.EDU
            URL https://www.minorplanetcenter.net/    ISSN 1523-6714
                                   2022 AY54                                    
Observations:
     K22A54Y* C2022 01 07.55862308 38 43.61 +26 23 12.2          17.6 GXEJ119381
     K22A54Y  C2022 01 07.55871508 38 41.97 +26 21 58.4          17.4 GXEJ119381
     K22A54Y  C2022 01 07.56968808 35 24.42 +23 53 30.6          18.4 GXEJ119381
     K22A54Y  C2022 01 07.56979208 35 22.61 +23 52 07.8          17.5 GXEJ119381
     K22A54Y  C2022 01 07.58040508 32 06.58 +21 19 10.1          17.5 GXEJ119381
     K22A54Y  C2022 01 07.58046308 32 05.36 +21 18 13.4          17.0 GXEJ119381
     K22A54Y  C2022 01 07.61449108 21 04.01 +12 05 29.3          17.9 GXEJ119381
     K22A54Y  C2022 01 07.61456008 21 02.80 +12 04 20.9          17.1 GXEJ119381
     K22A54Y  C2022 01 07.67472 07 59 56.88 -07 12 40.8          16.7 RrEJ119P93
     K22A54Y  C2022 01 07.67498 07 59 50.94 -07 18 03.2          17.2 RrEJ119P93
     K22A54Y  C2022 01 07.67526 07 59 44.63 -07 23 37.8          17.3 RrEJ119P93
     K22A54Y  C2022 01 07.67553 07 59 38.57 -07 29 03.3          17.0 RrEJ119P93
     K22A54Y  C2022 01 07.67585 07 59 31.40 -07 35 28.6          17.2 RrEJ119P93
     K22A54Y  C2022 01 07.68029 07 57 50.82 -09 05 05.6          17.5 RrEJ119P93
     K22A54Y  C2022 01 07.68055 07 57 44.72 -09 10 28.9          17.7 RrEJ119P93
     K22A54Y  C2022 01 07.68114 07 57 31.33 -09 22 20.5          17.4 RrEJ119P93
Observer details:
381 Tokyo-Kiso.  Observer J. Beniyama.  1.05-m f/3.1 Schmidt + CCD.
P93 Space Tracking and Communications Center, JAXA.  Observers S. Urakawa, T.
    Nimura.  1.0-m f/3.0 reflector + CCD.
Orbital elements:
2022 AY54                                                Earth MOID = 0.0023 AU
Epoch 2024 Mar. 31.0 TT = JDT 2460400.5                 Veres                   
M 207.53171              (2000.0)            P               Q                  
n   0.74586387     Peri.  248.44533     -0.87775162     -0.03313292             
a   1.2041937      Node   286.95738     +0.29170431     -0.82835159             
e   0.3016847      Incl.   29.97980     -0.38007984     -0.55922791             
P   1.32           H   30.26          G   0.15           U   9                  
Residuals in seconds of arc
220107 381  0.6+  2.5+    220107 381  1.8-  1.9-    220107 P93  0.6+  2.4+
220107 381  0.5+  0.9+    220107 381  0.8+  2.5+    220107 P93  1.0+  2.1+
220107 381  0.5-  3.2-    220107 P93  0.5+  1.4+    220107 P93  1.7-  6.5-
220107 381  0.7+  1.2+    220107 P93  0.7-  6.1-    220107 P93  1.2-  4.1-
220107 381  0.6+  1.2+    220107 P93  0.6-  1.5-
220107 381  1.4-  3.8-    220107 P93  0.1-  0.0
Ephemeris:
2022 AY54                a,e,i = 1.20, 0.30, 30                  q = 0.8409
Date    TT    R. A. (2000) Decl.     Delta      r    Elong.  Phase     V
2024 04 07    00 26 08.2 +22 41 21   2.4503  1.5325    18.3    11.8    33.9
...
2024 04 22    01 07 32.6 +26 46 16   2.4189  1.5046    19.0    12.6    33.8
...
2024 04 30    01 30 53.3 +28 47 13   2.3972  1.4865    19.5    13.1    33.8
...
2024 05 06    01 49 03.6 +30 12 01   2.3787  1.4714    20.0    13.5    33.8
2024 05 07    01 52 08.8 +30 25 35   2.3754  1.4687    20.0    13.6    33.8
2024 05 08    01 55 15.1 +30 38 59   2.3721  1.4660    20.1    13.7    33.8
...
2024 05 14    02 14 14.2 +31 55 23   2.3513  1.4493    20.6    14.2    33.7
...
2024 05 22    02 40 32.3 +33 25 21   2.3211  1.4250    21.2    14.9    33.7
...
2024 06 06    03 32 57.0 +35 28 35   2.2574  1.3736    22.3    16.3    33.6
M. P. C. Staff               (C) Copyright 2024 MPC           M.P.E.C. 2024-J119
    
    
More information about the Iaude
mailing list